Location: Boncourt
(49.6160°N, 3.9448°E)
Time: 12:08:25
(UTC+00:00)

Cosmos 2322 - Pass Details

Date: 09 February 2023
Orbit: 841 x 854 km, 71.0° (Epoch: 21 March)

Event Time Altitude Azimuth Distance (km) Brightness Sun altitude
Rises 17:33:23 0° 182° (S) 3,408 7.1 -7.1°
Reaches altitude 10° 17:35:58 10° 174° (S) 2,477 6.3 -7.5°
Maximum altitude 17:41:11 39° 108° (ESE) 1,264 4.2 -8.3°
Drops below altitude 10° 17:46:27 10° 41° (NE) 2,493 5.7 -9.2°
Enters shadow 17:48:36 - 35° (NE) 3,270 6.3 -9.5°
